ALESUND / VIGRA current weather conditions

sailwx.info

Wind from 230 at 11 knots

Air temperature 2.0° C
Visibility: greater than 5.4 NM
Dewpoint 1.0° C

Last reported at 2015-Apr-01 03:20 UTC.
Time now 2015-Apr-01 04:39 UTC

Location: N 62°34' E 006°07'.
View on Google Maps.

See reports from other nearby stations

  
Tides and Currents Weather Stations Pressure Air Temp Water Temp Dewpoint Dewpoint Depression Visibility Wind Speed Wind Dir Waves Ship Positions
date/time (UTC)wind fromknots sea level pressurealtimeterstation pressurevisibilityair tempwater tempwave heightnotes
2015-Apr-01 03:20 230 11 5.4 2.0
2015-Apr-01 02:50 190 4 5.4 2.0
2015-Apr-01 02:20 200 4 5.4 2.0
2015-Apr-01 01:50 250 4 5.4 2.0 Light drizzle.
2015-Apr-01 01:20 260 9 2.4 1.0 Light snow.
2015-Apr-01 00:50 270 12 5.4 2.0
2015-Apr-01 00:20 200 8 5.4 3.0
2015-Mar-31 23:50 220 5 5.4 3.0
2015-Mar-31 23:20 270 5 5.4 2.0
2015-Mar-31 22:50 260 8 5.4 3.0
2015-Mar-31 22:20 230 8 5.4 4.0
2015-Mar-31 21:50 200 5 5.4 5.0
2015-Mar-31 21:20 200 7 5.4 5.0
2015-Mar-31 20:50 190 8 5.4 5.0
2015-Mar-31 20:20 200 6 5.4 5.0
2015-Mar-31 19:20 210 7 5.4 5.0
2015-Mar-31 18:50 180 8 5.4 5.0
2015-Mar-31 18:20 210 11 5.4 5.0
2015-Mar-31 17:50 210 10 5.4 5.0
2015-Mar-31 17:20 210 11 5.4 5.0
2015-Mar-31 16:50 210 11 5.4 5.0
2015-Mar-31 16:20 210 9 5.4 5.0
2015-Mar-31 15:50 180 7 5.4 6.0
2015-Mar-31 15:20 200 9 5.4 5.0
2015-Mar-31 14:50 210 13 5.4 6.0
2015-Mar-31 14:20 220 11 5.4 6.0
2015-Mar-31 13:50 210 10 5.4 6.0
2015-Mar-31 13:20 200 8 5.4 6.0
2015-Mar-31 12:50 210 8 5.4 7.0
2015-Mar-31 12:20 200 7 5.4 6.0
2015-Mar-31 11:50 210 9 6.0
2015-Mar-31 11:20 210 10 6.0
2015-Mar-31 10:50 210 9 5.4 6.0
2015-Mar-31 10:20 200 9 5.4 5.0
2015-Mar-31 09:50 200 8 5.4 6.0
2015-Mar-31 09:20 200 7 5.0
2015-Mar-31 08:50 200 7 5.0
2015-Mar-31 08:20 170 6 4.0
2015-Mar-31 07:50 200 5 4.0
2015-Mar-31 07:20 180 4 4.0
2015-Mar-31 06:50 170 5 5.4 3.0
2015-Mar-31 06:20 170 5 5.4 3.0
2015-Mar-31 05:50 170 5 5.4 2.0
2015-Mar-31 05:20 180 3 5.4 1.0
2015-Mar-31 04:50 230 5 5.4 1.0
2015-Mar-31 04:20 250 5 5.4 1.0
2015-Mar-31 03:50 240 5 5.4 2.0
2015-Mar-31 03:20 230 4 5.4 2.0
2015-Mar-31 02:50 200 7 5.4 3.0
2015-Mar-31 02:20 210 7 5.4 2.0
2015-Mar-31 01:50 210 6 5.4 2.0
2015-Mar-31 01:20 200 6 5.4 3.0
2015-Mar-31 00:50 190 7 5.4 3.0
2015-Mar-31 00:20 190 9 5.4 2.0
2015-Mar-30 23:50 210 6 5.4 2.0
2015-Mar-30 23:20 240 6 5.4 1.0 Light rain.
2015-Mar-30 22:50 240 11 5.4 1.0
2015-Mar-30 22:20 200 7 5.4 2.0
2015-Mar-30 21:50 170 5 3.8 1.0 Light rain snow.
2015-Mar-30 21:20 240 16 1.0 1.0 Rain snow.
2015-Mar-30 20:50 200 9 5.4 3.0
2015-Mar-30 20:20 200 8 5.4 3.0
2015-Mar-30 19:50 210 11 5.4 3.0
2015-Mar-30 19:20 220 11 5.4 3.0 Light rain showers.
2015-Mar-30 18:50 200 10 5.4 4.0
2015-Mar-30 18:20 190 12 5.4 4.0
2015-Mar-30 17:50 200 12 5.4 4.0 Showers in the vicinity.
2015-Mar-30 17:20 230 20 5.4 3.0 Showers in the vicinity.
2015-Mar-30 16:50 220 10 5.4 5.0 Showers in the vicinity.
2015-Mar-30 16:20 220 3 5.4 5.0 Showers in the vicinity.
2015-Mar-30 15:50 250 3 5.4 5.0
2015-Mar-30 15:20 230 3 5.4 6.0
2015-Mar-30 14:50 250 4 5.4 6.0
2015-Mar-30 14:20 250 6 5.4 6.0
2015-Mar-30 13:50 250 5 5.4 7.0
2015-Mar-30 13:20 220 6 5.4 6.0
2015-Mar-30 12:50 220 4 6.0
2015-Mar-30 12:20 190 2 5.4 6.0
2015-Mar-30 11:50 200 4 5.4 6.0
2015-Mar-30 11:20 150 5 5.4 6.0
2015-Mar-30 10:50 160 4 5.4 6.0
2015-Mar-30 09:50 160 4 5.4 5.0
2015-Mar-30 09:20 150 5 5.4 5.0
2015-Mar-30 08:50 150 6 5.4 5.0
2015-Mar-30 08:20 140 6 5.4 4.0
2015-Mar-30 07:50 140 6 5.4 3.0
2015-Mar-30 07:20 160 5 5.4 2.0
2015-Mar-30 06:50 150 5 5.4 2.0
2015-Mar-30 06:20 150 6 5.4-0.0
2015-Mar-30 05:20 170 4 5.4 1.0
2015-Mar-30 04:50 170 4 5.4-0.0
2015-Mar-30 04:20 170 3 5.4-1.0